[[{"header":{"parameterUnit":"m.s-1","parameterCategory":1,"la1":30.2992,"la2":30.254,"lo1":-89.0895,"lo2":-89.0443,"dy":0.0025,"dx":0.0025,"nx":19,"ny":19,"refTime":"2026-04-02T21:00:00:Z","depth":0,"parameterNumber":2,"parameterNumberName":"U-component_of_WINDS"},"data":[0,0,0,-3.8408,-3.8411,-3.8551,-3.8552,-3.8738,-3.8739,0,0,0,0,0,0,0,0,0,0,0,-3.8371,-3.8373,-3.8408,-3.8412,-3.8551,-3.8552,-3.8737,-3.8739,0,0,0,0,0,0,0,0,0,0,0,-3.8371,-3.8372,-3.8374,-3.8412,-3.8551,-3.8552,-3.8737,-3.8629,0,0,0,0,0,0,0,0,0,0,-3.8492,-3.8462,-3.8372,-3.8374,-3.8413,-3.8551,-3.8552,-3.8624,-3.8636,-3.8678,0,-3.8716,0,-3.8731,-3.8752,-3.8753,0,0,0,-3.8408,-3.8452,-3.8486,-3.8374,-3.8414,-3.8551,-3.8487,-3.863,-3.8644,-3.8694,-3.8718,-3.8725,-3.8734,-3.8754,-3.8755,-3.9007,-3.9008,0,0,-3.8401,-3.8398,-3.8476,-3.8495,-3.8473,-3.8483,-3.8492,-3.8639,-3.8665,-3.8719,-3.8729,-3.8737,-3.8755,-3.8756,-3.9005,-3.9007,0,0,0,-3.8381,-3.8393,-3.8423,-3.8487,-3.8512,-3.8487,-3.8497,-3.8659,-3.8669,-3.8731,-3.8739,-3.8756,-3.8758,-3.9004,-3.9006,-3.9068,0,0,0,-3.8376,-3.8382,-3.842,-3.842,-3.8509,-3.8587,-3.8514,-3.8659,-3.8675,-3.8738,-3.8756,-3.876,-3.9002,-3.9005,-3.9063,-3.9097,0,0,0,-3.8361,-3.838,-3.8401,-3.842,-3.848,-3.8585,-3.8603,-3.8662,-3.868,-3.8753,-3.8761,-3.9001,-3.9004,-3.9059,-3.909,-3.9161,0,0,0,-3.8343,-3.8455,-3.8402,-3.853,-3.8479,-3.8623,-3.8602,-3.871,-3.878,-3.8757,-3.9003,-3.9006,-3.9057,-3.9085,-3.9157,-3.922,-3.9246,0,0,-3.8482,-3.8471,-3.8547,-3.8504,-3.8656,-3.8601,-3.8764,-3.883,-3.884,-3.8951,-3.8957,-3.9065,-3.9089,-3.916,-3.94,-3.9421,0,0,0,-3.859,-3.8644,-3.8685,-3.8751,-3.8806,-3.8854,-3.8897,-3.8922,-3.9016,-3.8896,-3.9111,-3.9126,-3.9168,-3.9198,-3.9216,-3.9251,-3.902,-3.902,-3.9019,-3.8781,-3.8788,-3.8913,-3.8937,-3.9002,-3.9045,-3.9099,-3.914,-3.9127,-3.9178,-3.921,-3.9355,-3.939,-3.9403,-3.944,-3.9246,-3.9246,-3.9246,-3.9247,-3.8984,-3.906,-3.9043,-3.9157,-3.9164,-3.926,-3.9307,-3.9296,-3.9386,-3.9331,-3.9368,-3.9304,-3.9426,-3.9459,-3.9251,-3.9251,-3.925,-3.925,-3.9249,-3.9108,-3.9145,-3.9175,-3.9273,-3.9348,-3.9369,-3.9457,-3.9461,-3.9465,-3.9502,-3.9536,-3.9535,-3.9533,-3.9519,-3.9519,-3.952,-3.952,-3.952,-3.9521,-3.9224,-3.9255,-3.9328,-3.9397,-3.944,-3.9499,-3.9545,-3.9589,-3.9638,-3.9633,-3.9634,-3.9615,-3.9438,-3.9392,-3.9529,-3.9527,-3.9526,-3.9525,-3.9525,-3.9422,-3.9378,-3.9492,-3.9536,-3.9617,-3.9691,-3.9696,-3.9784,-3.9821,-3.9865,-3.984,-3.9709,-3.9697,-3.9683,-3.9645,-3.9839,-3.9839,-3.9839,-3.9839,-3.9525,-3.9521,-3.9637,-3.9708,-3.9777,-3.9794,-3.9922,-3.9961,-3.9993,-4.0017,-3.999,-3.9941,-3.9926,-3.9923,-3.9904,-3.9868,-4.0115,-4.0115,-4.0115,-3.9647,-3.9649,-3.9757,-3.9788,-3.9853,-3.9908,-4.0029,-4.0111,-4.0139,-4.0127,-4.0035,-4.0023,-3.9944,-3.9918,-3.9899,-3.9869,-3.9803,0,0]},{"header":{"parameterUnit":"m.s-1","parameterCategory":1,"la1":30.2992,"la2":30.254,"lo1":-89.0895,"lo2":-89.0443,"dy":0.0025,"dx":0.0025,"nx":19,"ny":19,"refTime":"2026-04-02T21:00:00:Z","depth":0,"parameterNumber":3,"parameterNumberName":"V-component_of_WINDS"},"data":[0,0,0,0.6863,0.6862,0.6823,0.6823,0.6783,0.6783,0,0,0,0,0,0,0,0,0,0,0,0.6882,0.6882,0.6863,0.6862,0.6823,0.6823,0.6783,0.6783,0,0,0,0,0,0,0,0,0,0,0,0.6882,0.6882,0.6882,0.6862,0.6823,0.6823,0.6783,0.6809,0,0,0,0,0,0,0,0,0,0,0.6845,0.6869,0.6882,0.6882,0.6862,0.6823,0.6823,0.681,0.6807,0.6806,0,0.6807,0,0.6794,0.6781,0.6781,0,0,0,0.6857,0.6871,0.6855,0.6882,0.6862,0.6823,0.6839,0.6808,0.6805,0.6803,0.6806,0.6804,0.6794,0.6781,0.6781,0.6793,0.6794,0,0,0.6859,0.6878,0.6857,0.6853,0.6861,0.684,0.6838,0.6806,0.6811,0.6806,0.6803,0.6793,0.6781,0.678,0.6793,0.6793,0,0,0,0.6869,0.688,0.6863,0.6855,0.6847,0.6839,0.6837,0.6813,0.6806,0.6803,0.6793,0.678,0.678,0.6793,0.6793,0.6828,0,0,0,0.687,0.6885,0.6865,0.6876,0.6848,0.6829,0.6844,0.6808,0.6804,0.6793,0.678,0.678,0.6792,0.6793,0.6826,0.6841,0,0,0,0.6882,0.6887,0.6883,0.6877,0.6861,0.683,0.6821,0.6807,0.6798,0.6781,0.678,0.6792,0.6793,0.6825,0.6839,0.6852,0,0,0,0.6899,0.6913,0.6884,0.6896,0.6861,0.6852,0.6821,0.6812,0.6802,0.678,0.6792,0.6793,0.6824,0.6837,0.685,0.6866,0.6875,0,0,0.6927,0.6917,0.6923,0.6896,0.6897,0.6856,0.6862,0.6833,0.6814,0.6801,0.6801,0.6827,0.6838,0.6851,0.6914,0.6921,0,0,0,0.6938,0.6942,0.6938,0.693,0.691,0.6895,0.6864,0.6854,0.6843,0.6811,0.6834,0.684,0.6847,0.6854,0.686,0.6865,0.6797,0.6797,0.6797,0.7003,0.698,0.6988,0.696,0.6953,0.6923,0.6915,0.6896,0.6872,0.6878,0.6874,0.6916,0.6925,0.6929,0.6935,0.6881,0.6881,0.6881,0.6881,0.7043,0.7046,0.7017,0.7015,0.699,0.6988,0.6961,0.6945,0.6939,0.6916,0.692,0.6898,0.6937,0.6941,0.6883,0.6883,0.6883,0.6882,0.6882,0.7083,0.7081,0.707,0.7058,0.7051,0.7023,0.702,0.6997,0.6975,0.698,0.6974,0.6974,0.6971,0.6979,0.6979,0.6979,0.6979,0.6979,0.6979,0.713,0.7117,0.7118,0.71,0.7094,0.7082,0.7054,0.7046,0.7032,0.7016,0.7016,0.6993,0.6945,0.6934,0.6981,0.6981,0.6981,0.6981,0.698,0.718,0.7166,0.7167,0.7161,0.714,0.7136,0.7108,0.7096,0.7086,0.7086,0.7063,0.7031,0.7019,0.7014,0.7005,0.7067,0.7067,0.7067,0.7067,0.7215,0.7207,0.7205,0.7197,0.7186,0.7161,0.7165,0.7145,0.7121,0.7114,0.7102,0.7088,0.7084,0.7074,0.7068,0.7059,0.7133,0.7133,0.7133,0.7245,0.7235,0.7243,0.7221,0.7203,0.7189,0.7193,0.7185,0.7155,0.7136,0.7109,0.7106,0.7083,0.7076,0.7055,0.7046,0.703,0,0]}]]